Location: Blangy-Tronville
(49.8790°N, 2.4226°E)
Time: 07:40:16
(UTC+00:00)

Helios 1A Rocket - Pass Details

Date: 18 November 2025
Orbit: 440 x 452 km, 98.3° (Epoch: 06 December)

Event Time Altitude Azimuth Distance (km) Brightness Sun altitude
Exits shadow 17:15:58 12° 113° (ESE) 1,452 4.5 -11.7°
Drops below altitude 10° 17:16:38 10° 124° (SE) 1,573 4.8 -11.8°
Sets 17:19:29 0° 152° (SSE) 2,442 6.0 -12.2°
